Location: Starlight Observatory
(38.4029°N, 85.8936°W)
Time: 05:38:28
(UTC-04:00)

Iridium 62 - Visible Passes

Search period start: 26 April 2018 00:00
Search period end: 06 May 2018 00:00
Orbit: 776 x 779 km, 86.4° (Epoch: 25 April)

Date Brightness Start Highest point End Pass type
(mag) Time Alt. Az. Time Alt. Az. Time Alt. Az.
26 Apr 7.5 04:36:29 10° NNE 04:41:09 32° E 04:45:47 10° SE visible
26 Apr 6.9 06:17:25 10° NNW 06:21:41 26° W 06:25:56 10° SW visible
27 Apr 8.3 04:03:55 10° NE 04:07:22 18° ENE 04:10:49 10° ESE visible
27 Apr 6.1 05:43:21 10° NNW 05:48:22 49° W 05:53:21 10° SSW visible
28 Apr 5.8 05:09:40 10° N 05:14:55 89° E 05:20:08 10° S visible
29 Apr 6.7 04:36:19 10° N 04:41:21 47° E 04:46:21 10° SSE visible
29 Apr 7.3 06:18:11 10° NW 06:21:38 18° W 06:25:04 10° WSW visible
30 Apr 7.8 04:03:21 10° NNE 04:07:40 25° E 04:11:56 10° SE visible
30 Apr 6.6 05:43:44 10° NNW 05:48:23 33° W 05:53:00 10° SSW visible
01 May 8.5 03:31:15 10° NE 03:33:50 14° ENE 03:36:25 10° ESE visible
01 May 5.8 05:09:50 10° N 05:15:00 63° W 05:19:02 17° SSW visible
02 May 6.0 04:36:17 10° N 04:41:31 70° E 04:45:07 20° SSE visible
03 May 7.1 04:03:04 10° NNE 04:07:54 36° E 04:11:14 18° SE visible
03 May 7.0 05:44:19 10° NNW 05:48:21 23° W 05:51:41 13° SW visible
04 May 8.0 03:30:21 10° NNE 03:34:10 20° ENE 03:37:23 12° ESE visible
04 May 6.2 05:10:08 10° NNW 05:15:03 42° W 05:17:50 23° SW visible
05 May 8.6 02:59:25 10° ENE 03:00:16 10° ENE 03:01:06 10° E visible
05 May 5.7 04:36:23 10° N 04:41:38 81° W 04:44:02 33° S visible
